EWG90HY EDDH-LSZH

Flight info

Callsign EWG90HY
Flight time 1h 10m
Altitude 32000
Route IDEKO7G/33 IDEKO N850 ROBEG DCT SWALM DCT OMOGI T721 RILAX
Aircraft A319/M-SDE3FGHIRWY/LB1

Departure

Time 2026-05-04 22:04
Airport Hamburg Helmut Schmidt Airport (EDDH)

Arrival

Time 2026-05-04 23:15
Airport Zürich Airport (LSZH)
Time Latitude Longitude Altitude Speed Heading
2026-05-04 21:36 53.63112 10.00371 46 ft 0 kts 87°
2026-05-04 21:55 53.63111 10.00351 46 ft 4 kts 87°
2026-05-04 21:56 53.63110 10.00306 44 ft 4 kts 87°
2026-05-04 21:56 53.63109 10.00260 44 ft 4 kts 87°
2026-05-04 21:56 53.63107 10.00224 44 ft 4 kts 93°
2026-05-04 21:56 53.63118 10.00192 46 ft 4 kts 171°
2026-05-04 21:57 53.63138 10.00189 47 ft 0 kts 175°
2026-05-04 22:01 53.63131 10.00190 46 ft 2 kts 175°
2026-05-04 22:01 53.63104 10.00193 45 ft 6 kts 175°
2026-05-04 22:01 53.63060 10.00177 46 ft 8 kts 213°
2026-05-04 22:02 53.63010 10.00122 48 ft 10 kts 213°
2026-05-04 22:02 53.62953 10.00057 45 ft 10 kts 214°
2026-05-04 22:02 53.62912 9.99967 48 ft 10 kts 242°
2026-05-04 22:02 53.62875 9.99850 47 ft 13 kts 242°
2026-05-04 22:03 53.62855 9.99762 45 ft 4 kts 295°
2026-05-04 22:03 53.62872 9.99742 45 ft 0 kts 329°
2026-05-04 22:03 53.62967 9.99653 45 ft 47 kts 331°
2026-05-04 22:04 53.63454 9.99239 47 ft 108 kts 332°
2026-05-04 22:04 53.64276 9.98530 58 ft 156 kts 333°
2026-05-04 22:04 53.65254 9.97685 618 ft 157 kts 333°
2026-05-04 22:04 53.66229 9.96869 1304 ft 157 kts 333°
2026-05-04 22:05 53.67203 9.96044 1949 ft 157 kts 332°
2026-05-04 22:05 53.68219 9.95172 2331 ft 174 kts 330°
2026-05-04 22:05 53.69364 9.94180 2603 ft 197 kts 330°
2026-05-04 22:05 53.70639 9.93007 3012 ft 215 kts 322°
2026-05-04 22:06 53.71466 9.90972 3769 ft 215 kts 281°
2026-05-04 22:06 53.71373 9.88355 4236 ft 238 kts 253°
2026-05-04 22:06 53.70861 9.85595 4938 ft 252 kts 250°
2026-05-04 22:06 53.70272 9.82775 5868 ft 257 kts 249°
2026-05-04 22:07 53.69667 9.79926 6809 ft 260 kts 250°
2026-05-04 22:07 53.69060 9.77025 7718 ft 263 kts 250°
2026-05-04 22:07 53.68456 9.74084 8631 ft 267 kts 250°
2026-05-04 22:07 53.67858 9.71110 9551 ft 269 kts 251°
2026-05-04 22:08 53.67257 9.68088 10300 ft 278 kts 251°
2026-05-04 22:08 53.66604 9.64876 10576 ft 301 kts 248°
2026-05-04 22:08 53.65530 9.61761 11065 ft 314 kts 232°
2026-05-04 22:08 53.63931 9.59217 11758 ft 320 kts 216°
2026-05-04 22:09 53.61926 9.57521 12495 ft 328 kts 200°
2026-05-04 22:09 53.59665 9.56807 13224 ft 334 kts 189°
2026-05-04 22:09 53.57341 9.56353 13936 ft 338 kts 189°
2026-05-04 22:09 53.54992 9.55900 14576 ft 342 kts 189°
2026-05-04 22:10 53.52611 9.55439 15231 ft 345 kts 189°
2026-05-04 22:10 53.50220 9.54971 15866 ft 348 kts 189°
2026-05-04 22:10 53.47765 9.54487 16512 ft 352 kts 189°
2026-05-04 22:10 53.45322 9.54001 17156 ft 355 kts 189°
2026-05-04 22:11 53.42850 9.53513 17792 ft 359 kts 189°
2026-05-04 22:11 53.40388 9.53028 18395 ft 363 kts 189°
2026-05-04 22:11 53.37874 9.52532 18964 ft 365 kts 189°
2026-05-04 22:11 53.35314 9.52029 19580 ft 367 kts 189°
2026-05-04 22:12 53.32804 9.51536 20189 ft 368 kts 189°
2026-05-04 22:12 53.30253 9.51040 20807 ft 369 kts 189°
2026-05-04 22:12 53.27696 9.50545 21409 ft 371 kts 189°
2026-05-04 22:12 53.25092 9.50040 22015 ft 372 kts 189°
2026-05-04 22:13 53.22548 9.49549 22598 ft 374 kts 189°
2026-05-04 22:13 53.19922 9.49041 23183 ft 376 kts 189°
2026-05-04 22:13 53.17354 9.48540 23708 ft 377 kts 189°
2026-05-04 22:13 53.14708 9.48022 24175 ft 379 kts 189°
2026-05-04 22:14 53.12968 9.47680 24477 ft 380 kts 190°
2026-05-04 22:14 53.10337 9.47164 24926 ft 382 kts 190°
2026-05-04 22:14 53.07690 9.46649 25370 ft 384 kts 190°
2026-05-04 22:14 53.05034 9.46138 25793 ft 385 kts 190°
2026-05-04 22:15 53.02366 9.45624 26212 ft 387 kts 190°
2026-05-04 22:15 52.99687 9.45107 26619 ft 388 kts 191°
2026-05-04 22:15 52.96999 9.44572 27015 ft 390 kts 191°
2026-05-04 22:15 52.94303 9.44003 27424 ft 391 kts 192°
2026-05-04 22:16 52.91593 9.43416 27841 ft 393 kts 192°
2026-05-04 22:16 52.88877 9.42822 28267 ft 395 kts 192°
2026-05-04 22:16 52.86144 9.42223 28687 ft 397 kts 192°
2026-05-04 22:16 52.83395 9.41622 29103 ft 399 kts 192°
2026-05-04 22:17 52.80639 9.41024 29515 ft 401 kts 192°
2026-05-04 22:17 52.77918 9.40441 29910 ft 403 kts 192°
2026-05-04 22:17 52.75144 9.39851 30253 ft 404 kts 192°
2026-05-04 22:17 52.72339 9.39257 30586 ft 406 kts 192°
2026-05-04 22:18 52.69534 9.38667 30905 ft 407 kts 192°
2026-05-04 22:18 52.66714 9.38075 31190 ft 408 kts 192°
2026-05-04 22:18 52.63898 9.37485 31441 ft 409 kts 192°
2026-05-04 22:18 52.61073 9.36875 31697 ft 409 kts 192°
2026-05-04 22:19 52.58264 9.36191 31913 ft 408 kts 193°
2026-05-04 22:19 52.52807 9.34728 31972 ft 385 kts 194°
2026-05-04 22:20 52.47584 9.33302 31974 ft 378 kts 194°
2026-05-04 22:20 52.42401 9.31920 31974 ft 377 kts 193°
2026-05-04 22:21 52.37216 9.30573 31973 ft 377 kts 193°
2026-05-04 22:21 52.32030 9.29222 31972 ft 377 kts 193°
2026-05-04 22:22 52.26850 9.27871 31967 ft 377 kts 193°
2026-05-04 22:22 52.21595 9.26875 31963 ft 380 kts 186°
2026-05-04 22:23 52.16304 9.26643 31959 ft 380 kts 186°
2026-05-04 22:23 52.11012 9.26416 31952 ft 380 kts 186°
2026-05-04 22:24 52.05720 9.26194 31950 ft 380 kts 186°
2026-05-04 22:24 52.00438 9.25969 31949 ft 380 kts 186°
2026-05-04 22:25 51.95153 9.25746 31949 ft 380 kts 186°
2026-05-04 22:25 51.89869 9.25515 31952 ft 380 kts 186°
2026-05-04 22:26 51.84582 9.25284 31954 ft 380 kts 186°
2026-05-04 22:26 51.79301 9.25049 31955 ft 380 kts 186°
2026-05-04 22:27 51.74007 9.24823 31959 ft 380 kts 185°
2026-05-04 22:27 51.68712 9.24600 31953 ft 380 kts 185°
2026-05-04 22:28 51.63416 9.24379 31953 ft 381 kts 185°
2026-05-04 22:28 51.58116 9.24159 31952 ft 381 kts 185°
2026-05-04 22:29 51.52816 9.23930 31950 ft 381 kts 185°
2026-05-04 22:29 51.47511 9.23704 31947 ft 382 kts 185°
2026-05-04 22:30 51.42198 9.23485 31950 ft 382 kts 185°
2026-05-04 22:30 51.36889 9.23259 31953 ft 382 kts 185°
2026-05-04 22:31 51.31575 9.23039 31957 ft 382 kts 185°
2026-05-04 22:31 51.26259 9.22817 31976 ft 382 kts 185°
2026-05-04 22:32 51.20945 9.22590 31982 ft 382 kts 185°
2026-05-04 22:32 51.15634 9.22365 31981 ft 382 kts 185°
2026-05-04 22:33 51.10332 9.22138 31976 ft 381 kts 185°
2026-05-04 22:33 51.05019 9.21923 31984 ft 382 kts 185°
2026-05-04 22:34 50.99708 9.21706 31986 ft 382 kts 185°
2026-05-04 22:34 50.94400 9.21482 31987 ft 382 kts 185°
2026-05-04 22:35 50.89091 9.21266 31983 ft 381 kts 185°
2026-05-04 22:35 50.83787 9.21047 31987 ft 381 kts 185°
2026-05-04 22:36 50.78477 9.20832 31979 ft 381 kts 185°
2026-05-04 22:36 50.73171 9.20615 31975 ft 381 kts 185°
2026-05-04 22:37 50.67916 9.19766 31973 ft 379 kts 190°
2026-05-04 22:37 50.62688 9.18679 31973 ft 379 kts 191°
2026-05-04 22:38 50.57457 9.17594 31972 ft 379 kts 190°
2026-05-04 22:38 50.52225 9.16512 31970 ft 380 kts 190°
2026-05-04 22:39 50.46987 9.15435 31970 ft 380 kts 190°
2026-05-04 22:39 50.41741 9.14356 31969 ft 380 kts 190°
2026-05-04 22:40 50.36466 9.13263 31969 ft 380 kts 191°
2026-05-04 22:40 50.31254 9.12180 31968 ft 380 kts 190°
2026-05-04 22:41 50.25974 9.11101 31974 ft 380 kts 190°
2026-05-04 22:41 50.20725 9.10037 31975 ft 381 kts 190°
2026-05-04 22:42 50.15476 9.08976 31974 ft 380 kts 190°
2026-05-04 22:42 50.10223 9.07905 31969 ft 380 kts 190°
2026-05-04 22:43 50.04977 9.06833 31968 ft 380 kts 191°
2026-05-04 22:43 49.99724 9.05760 31963 ft 381 kts 190°
2026-05-04 22:44 49.94463 9.04708 31969 ft 381 kts 190°
2026-05-04 22:44 49.89206 9.03649 31966 ft 381 kts 190°
2026-05-04 22:45 49.83947 9.02593 31968 ft 381 kts 190°
2026-05-04 22:45 49.76039 9.01002 31965 ft 382 kts 190°
2026-05-04 22:46 49.70757 8.99943 31964 ft 383 kts 190°
2026-05-04 22:46 49.65469 8.98890 31965 ft 383 kts 191°
2026-05-04 22:47 49.60216 8.97583 31964 ft 382 kts 193°
2026-05-04 22:47 49.54976 8.96059 31957 ft 383 kts 193°
2026-05-04 22:48 49.49736 8.94552 31959 ft 384 kts 193°
2026-05-04 22:48 49.45367 8.93352 31956 ft 384 kts 193°
2026-05-04 22:49 49.40094 8.91919 31957 ft 385 kts 193°
2026-05-04 22:49 49.34816 8.90480 31958 ft 385 kts 193°
2026-05-04 22:50 49.32173 8.89761 31830 ft 386 kts 193°
2026-05-04 22:50 49.29526 8.89044 31572 ft 385 kts 192°
2026-05-04 22:50 49.26892 8.88335 31321 ft 384 kts 192°
2026-05-04 22:50 49.24264 8.87627 31063 ft 383 kts 192°
2026-05-04 22:51 49.21649 8.86917 30809 ft 381 kts 192°
2026-05-04 22:51 49.19039 8.86206 30567 ft 380 kts 192°
2026-05-04 22:51 49.16443 8.85492 30321 ft 379 kts 192°
2026-05-04 22:51 49.13849 8.84778 30075 ft 378 kts 192°
2026-05-04 22:52 49.11268 8.84066 29794 ft 377 kts 192°
2026-05-04 22:52 49.08696 8.83360 29507 ft 375 kts 192°
2026-05-04 22:52 49.06130 8.82662 29221 ft 374 kts 192°
2026-05-04 22:52 49.03565 8.81966 28947 ft 373 kts 192°
2026-05-04 22:53 49.01017 8.81280 28670 ft 371 kts 192°
2026-05-04 22:53 48.98478 8.80602 28398 ft 370 kts 192°
2026-05-04 22:53 48.95948 8.79921 28128 ft 369 kts 192°
2026-05-04 22:53 48.93422 8.79238 27854 ft 368 kts 193°
2026-05-04 22:54 48.90905 8.78558 27587 ft 366 kts 193°
2026-05-04 22:54 48.88403 8.77882 27336 ft 363 kts 193°
2026-05-04 22:54 48.85932 8.77214 26996 ft 360 kts 193°
2026-05-04 22:54 48.83476 8.76549 26610 ft 357 kts 193°
2026-05-04 22:55 48.81038 8.75893 26224 ft 354 kts 193°
2026-05-04 22:55 48.78619 8.75243 25841 ft 352 kts 193°
2026-05-04 22:55 48.76219 8.74596 25457 ft 349 kts 193°
2026-05-04 22:55 48.73835 8.73957 25061 ft 347 kts 193°
2026-05-04 22:56 48.71457 8.73322 24662 ft 345 kts 193°
2026-05-04 22:56 48.69105 8.72695 24264 ft 343 kts 193°
2026-05-04 22:56 48.66758 8.72066 23855 ft 342 kts 193°
2026-05-04 22:56 48.64423 8.71439 23424 ft 340 kts 193°
2026-05-04 22:57 48.62101 8.70817 22967 ft 338 kts 193°
2026-05-04 22:57 48.59796 8.70207 22560 ft 335 kts 193°
2026-05-04 22:57 48.57512 8.69605 22141 ft 332 kts 192°
2026-05-04 22:57 48.55240 8.69006 21725 ft 330 kts 192°
2026-05-04 22:58 48.52990 8.68414 21310 ft 327 kts 192°
2026-05-04 22:58 48.50755 8.67823 20895 ft 325 kts 192°
2026-05-04 22:58 48.48531 8.67234 20483 ft 324 kts 192°
2026-05-04 22:58 48.46316 8.66647 20089 ft 324 kts 192°
2026-05-04 22:59 48.44061 8.66046 19669 ft 332 kts 192°
2026-05-04 22:59 48.41791 8.65439 19228 ft 331 kts 192°
2026-05-04 22:59 48.39524 8.64837 18802 ft 330 kts 192°
2026-05-04 22:59 48.37240 8.64229 18369 ft 329 kts 192°
2026-05-04 23:00 48.34998 8.63584 17911 ft 327 kts 193°
2026-05-04 23:00 48.32801 8.62921 17494 ft 324 kts 193°
2026-05-04 23:00 48.30597 8.62245 17078 ft 321 kts 193°
2026-05-04 23:00 48.28389 8.61561 16658 ft 319 kts 193°
2026-05-04 23:01 48.26225 8.60896 16255 ft 317 kts 193°
2026-05-04 23:01 48.24069 8.60241 15841 ft 315 kts 193°
2026-05-04 23:01 48.21956 8.59602 15445 ft 313 kts 193°
2026-05-04 23:01 48.19803 8.58952 15045 ft 311 kts 193°
2026-05-04 23:02 48.17683 8.58318 14642 ft 310 kts 193°
2026-05-04 23:02 48.15576 8.57687 14243 ft 308 kts 193°
2026-05-04 23:02 48.13508 8.57067 13880 ft 306 kts 193°
2026-05-04 23:02 48.11423 8.56443 13431 ft 305 kts 193°
2026-05-04 23:03 48.09350 8.55827 13039 ft 302 kts 193°
2026-05-04 23:03 48.07270 8.55210 12652 ft 299 kts 193°
2026-05-04 23:03 48.05267 8.54613 12273 ft 296 kts 193°
2026-05-04 23:03 48.03253 8.54013 11919 ft 293 kts 193°
2026-05-04 23:04 48.01263 8.53425 11709 ft 284 kts 193°
2026-05-04 23:04 47.99331 8.52856 11219 ft 282 kts 193°
2026-05-04 23:04 47.97414 8.52293 10813 ft 279 kts 193°
2026-05-04 23:04 47.95517 8.51732 10451 ft 277 kts 193°
2026-05-04 23:05 47.93631 8.51171 10097 ft 277 kts 193°
2026-05-04 23:05 47.91744 8.50601 9726 ft 276 kts 194°
2026-05-04 23:05 47.89871 8.50032 9361 ft 272 kts 194°
2026-05-04 23:05 47.89766 8.50000 9342 ft 272 kts 194°
2026-05-04 23:06 47.88142 8.49507 9029 ft 269 kts 194°
2026-05-04 23:06 47.86317 8.48953 8683 ft 266 kts 194°
2026-05-04 23:06 47.84510 8.48409 8348 ft 265 kts 194°
2026-05-04 23:06 47.82708 8.47862 8007 ft 264 kts 194°
2026-05-04 23:07 47.80909 8.47315 7666 ft 264 kts 194°
2026-05-04 23:07 47.79105 8.46765 7327 ft 264 kts 193°
2026-05-04 23:07 47.77302 8.46219 6981 ft 265 kts 194°
2026-05-04 23:07 47.75495 8.45673 6642 ft 265 kts 193°
2026-05-04 23:08 47.73689 8.45125 6294 ft 266 kts 193°
2026-05-04 23:08 47.71871 8.44573 5942 ft 266 kts 193°
2026-05-04 23:08 47.70076 8.43944 5583 ft 265 kts 201°
2026-05-04 23:08 47.68469 8.42676 5387 ft 257 kts 218°
2026-05-04 23:09 47.67201 8.40888 5301 ft 248 kts 228°
2026-05-04 23:09 47.66049 8.39047 5181 ft 238 kts 227°
2026-05-04 23:09 47.64952 8.37304 5078 ft 225 kts 227°
2026-05-04 23:09 47.63784 8.35888 4974 ft 210 kts 205°
2026-05-04 23:10 47.62414 8.35485 4895 ft 200 kts 178°
2026-05-04 23:10 47.61089 8.36068 4741 ft 200 kts 150°
2026-05-04 23:10 47.60020 8.37387 4504 ft 201 kts 139°
2026-05-04 23:10 47.59020 8.38778 4251 ft 196 kts 139°
2026-05-04 23:11 47.58032 8.40142 3981 ft 192 kts 139°
2026-05-04 23:11 47.57061 8.41477 3726 ft 188 kts 139°
2026-05-04 23:11 47.56112 8.42781 3496 ft 186 kts 139°
2026-05-04 23:11 47.55168 8.44075 3245 ft 182 kts 138°
2026-05-04 23:12 47.54267 8.45312 3000 ft 172 kts 139°
2026-05-04 23:12 47.53422 8.46471 2797 ft 156 kts 139°
2026-05-04 23:12 47.52666 8.47507 2588 ft 142 kts 139°
2026-05-04 23:12 47.51954 8.48482 2405 ft 138 kts 139°
2026-05-04 23:13 47.51257 8.49442 2217 ft 136 kts 138°
2026-05-04 23:13 47.50566 8.50385 2044 ft 135 kts 137°
2026-05-04 23:13 47.49879 8.51319 1882 ft 134 kts 137°
2026-05-04 23:13 47.49199 8.52254 1729 ft 133 kts 137°
2026-05-04 23:14 47.48521 8.53185 1535 ft 132 kts 138°
2026-05-04 23:14 47.47854 8.54095 1403 ft 124 kts 137°
2026-05-04 23:14 47.47312 8.54832 1388 ft 82 kts 137°
2026-05-04 23:14 47.46990 8.55272 1390 ft 57 kts 137°
2026-05-04 23:15 47.46767 8.55570 1394 ft 26 kts 142°
2026-05-04 23:15 47.46642 8.55662 1397 ft 17 kts 163°
2026-05-04 23:15 47.46535 8.55698 1401 ft 16 kts 167°
2026-05-04 23:15 47.46435 8.55732 1397 ft 10 kts 167°
2026-05-04 23:16 47.46369 8.55778 1404 ft 11 kts 145°
2026-05-04 23:16 47.46313 8.55853 1401 ft 11 kts 136°
2026-05-04 23:16 47.46259 8.55927 1406 ft 11 kts 137°
2026-05-04 23:16 47.46204 8.55994 1408 ft 10 kts 153°
2026-05-04 23:17 47.46134 8.55996 1407 ft 10 kts 185°
2026-05-04 23:17 47.46059 8.55984 1407 ft 12 kts 186°
2026-05-04 23:17 47.45970 8.55969 1406 ft 14 kts 192°
2026-05-04 23:17 47.45876 8.55920 1414 ft 10 kts 199°
2026-05-04 23:18 47.45809 8.55885 1413 ft 11 kts 199°
2026-05-04 23:18 47.45724 8.55869 1409 ft 14 kts 186°
2026-05-04 23:18 47.45637 8.55855 1408 ft 12 kts 186°
2026-05-04 23:18 47.45549 8.55841 1408 ft 8 kts 186°
2026-05-04 23:19 47.45507 8.55783 1409 ft 10 kts 262°
2026-05-04 23:19 47.45506 8.55705 1407 ft 5 kts 237°
2026-05-04 23:19 47.45470 8.55697 1407 ft 5 kts 185°
2026-05-04 23:19 47.45441 8.55693 1407 ft 1 kts 186°
2026-05-04 23:20 47.45434 8.55691 1407 ft 0 kts 186°